Weather History for Dillon, MT

Change the Weather History Date:

Tuesday, February 12, 2013

  Actual Average Record
Temperature  
Mean Temperature 27 °F 25 °F  
Max Temperature 38 °F 36 °F 56 °F (1971)
Min Temperature 15 °F 14 °F -25 °F (1949)
Degree Days  
Heating Degree Days 38    
Month to date heating degree days 428  
Since 1 July heating degree days 4828  
Cooling Degree Days 0    
Month to date cooling degree days 0  
Year to date cooling degree days 0  
Moisture  
Dew Point 17 °F    
Average Humidity 63    
Maximum Humidity 74    
Minimum Humidity 52    
Precipitation  
Precipitation 0.00 in 0.00 in 0.25 in (1959)
Month to date precipitation 0.02 0.08  
Year to date precipitation 0.20 0.36  
Snow  
Snow 0.00 in - - ()
Snow Depth T in    
Sea Level Pressure  
Sea Level Pressure 30.19 in    
Wind  
Wind Speed 17 mph (SW)    
Max Wind Speed 25 mph    
Max Gust Speed 31 mph    
Visibility 10 miles    
Events      
T = Trace of Precipitation, MM = Missing Value Source: NWS Daily Summary

Daily Weather History Graph

Daily Weather History Graph

Search for Another Location

Airport:

Trip Planner

Search our weather history database for the weather conditions in past years. The results will help you decide how hot, cold, wet, or windy it might be!

Date:

Astronomy

Feb. 12, 2013 Rise Set
Actual Time 7:35 AM MST 5:53 PM MST
Civil Twilight 7:05 AM MST 6:24 PM MST
Nautical Twilight 6:30 AM MST 6:59 PM MST
Astronomical Twilight 5:56 AM MST 7:33 PM MST
Moon 8:24 AM MST (2/12) 9:10 PM MST (2/12)
Length of Visible Light 11h 19m
Length of Day
10h 18m
Waxing Crescent, 8% of the Moon is Illuminated
Feb 12
Waxing Crescent
Feb 17
First Quarter
Feb 25
Full
Mar 4
Last Quarter
Mar 11
New

Hourly Weather History & Observations

Time (MST) Temp. Windchill Dew Point Humidity Pressure Visibility Wind Dir Wind Speed Gust Speed Precip Events Conditions
12:53 AM 19.9 °F 4.3 °F 10.9 °F 68% 30.05 in - SSW 19.6 mph - N/A   Clear
1:53 AM 16.0 °F 1.1 °F 8.1 °F 71% 30.07 in - WSW 15.0 mph - N/A   Clear
2:53 AM 17.1 °F 1.0 °F 8.1 °F 68% 30.07 in - SW 18.4 mph - N/A   Clear
3:53 AM 16.0 °F 1.7 °F 9.0 °F 74% 30.22 in - SW 13.8 mph - N/A   Clear
4:53 AM 18.0 °F 3.6 °F 10.0 °F 71% 30.22 in - WSW 15.0 mph - N/A   Clear
5:53 AM 18.0 °F 4.2 °F 10.0 °F 71% 30.27 in - SW 13.8 mph - N/A   Clear
6:53 AM 21.9 °F 8.7 °F 12.9 °F 68% 30.25 in - SW 15.0 mph - N/A   Overcast
7:53 AM 19.0 °F 5.6 °F 10.9 °F 71% 30.29 in - SW 13.8 mph - N/A   Overcast
8:53 AM - - - N/A% 30.12 in - North - - N/A   Unknown
9:53 AM - - - N/A% 30.14 in - North - - N/A   Unknown
10:53 AM 30.0 °F 18.7 °F 19.0 °F 64% 30.27 in 10.0 mi SSW 16.1 mph - N/A   Overcast
11:53 AM 34.0 °F 24.6 °F 21.0 °F 59% 30.23 in 10.0 mi SSW 13.8 mph - N/A   Overcast
12:53 PM 35.1 °F 24.8 °F 21.9 °F 59% 30.21 in 10.0 mi SW 17.3 mph - N/A   Overcast
1:53 PM 37.0 °F 25.9 °F 21.0 °F 52% 30.21 in 10.0 mi SW 23.0 mph 28.8 mph N/A   Overcast
2:53 PM 37.0 °F 26.4 °F 21.0 °F 52% 30.20 in 10.0 mi WSW 20.7 mph 26.5 mph N/A   Overcast
3:53 PM 36.0 °F 25.0 °F 21.0 °F 55% 30.21 in 10.0 mi SW 20.7 mph - 0.01 in   Overcast
4:53 PM 36.0 °F 26.0 °F 21.0 °F 55% 30.22 in 10.0 mi WSW 17.3 mph 26.5 mph N/A   Mostly Cloudy
5:53 PM 34.0 °F 23.4 °F 19.9 °F 56% 30.22 in 10.0 mi WSW 17.3 mph 26.5 mph N/A   Scattered Clouds
6:53 PM 32.0 °F 22.5 °F 21.0 °F 64% 30.24 in 10.0 mi SSW 12.7 mph - N/A   Overcast
7:53 PM 33.1 °F 21.9 °F 19.9 °F 59% 30.25 in 10.0 mi West 18.4 mph - N/A   Scattered Clouds
8:53 PM 32.0 °F 20.5 °F 21.0 °F 64% 30.11 in 10.0 mi SW 18.4 mph 26.5 mph N/A   Partly Cloudy
9:53 PM 30.9 °F 21.7 °F 21.0 °F 67% 30.11 in 10.0 mi SSW 11.5 mph - N/A   Scattered Clouds
10:53 PM 30.0 °F 19.5 °F 19.9 °F 66% 30.17 in 10.0 mi SW 13.8 mph - N/A   Clear
11:53 PM 32.0 °F 20.8 °F 21.0 °F 64% 30.15 in 10.0 mi SW 17.3 mph 25.3 mph N/A   Clear